Location: Devore Heights
(34.2372°N, 117.4156°W)
Time: 02:25:23
(UTC+00:00)

Altair - Pass Details

Date: 13 September 2024
Orbit: 1501 x 1682 km, 47.2° (Epoch: 09 October)

Event Time Altitude Azimuth Distance (km) Brightness Sun altitude
Exits shadow 08:30:45 17° 84° (E) 3,355 9.3 -50.7°
Drops below altitude 10° 08:33:17 10° 73° (ENE) 3,931 9.8 -50.6°
Sets 08:37:03 0° 63° (ENE) 4,932 10.6 -50.3°
